FW3849 Weather Reports


time (UTC)temp
F
wind
direction
speed
knots
gust
knots
rain 1hr
in
rain 24hr
in
rain mn
in
humidity
%
barometer
mb
20240527181002 103 25 0.9 5.2 0.00 0.00 0.00 1 1011.6
20240527180501 103 296 2.6 7.0 0.00 0.00 0.00 1 1011.7
20240527180100 103 354 1.7 7.0 0.00 0.00 0.00 1 1011.8
20240527175559 102 356 0.9 7.0 0.00 0.00 0.00 1 1011.8
20240527174557 101 355 3.5 6.1 0.00 0.00 0.00 1 1011.8
20240527174056 102 127 1.7 3.5 0.00 0.00 0.00 1 1011.8
20240527173556 101 16 0.9 4.3 0.00 0.00 0.00 1 1012.0
20240527173059 101 317 1.7 5.2 0.00 0.00 0.00 1 1012.1
20240527172551 101 354 1.7 7.0 0.00 0.00 0.00 1 1012.1
20240527172055 101 308 1.7 7.0 0.00 0.00 0.00 1 1012.1
20240527171549 101 33 1.7 5.2 0.00 0.00 0.00 1 1012.1
20240527171053 100 351 2.6 5.2 0.00 0.00 0.00 1 1012.1
20240527170547 99 360 2.6 6.1 0.00 0.00 0.00 1 1012.1
20240527170045 100 14 0.9 3.5 0.00 0.00 0.00 1 1012.1
20240527165543 98 10 2.6 7.8 0.00 0.00 0.00 2 1012.2
20240527164541 98 345 4.3 7.8 0.00 0.00 0.00 2 1012.1
20240527164040 98 310 2.6 6.1 0.00 0.00 0.00 4 1012.2
20240527163538 98 262 1.7 6.1 0.00 0.00 0.00 5 1012.0
20240527163038 97 358 2.6 6.1 0.00 0.00 0.00 7 1012.1
20240527162536 97 347 1.7 3.5 0.00 0.00 0.00 10 1012.2
20240527162034 97 48 0.9 7.0 0.00 0.00 0.00 10 1012.1
20240527161534 96 85 0.9 2.6 0.00 0.00 0.00 12 1012.2
20240527161031 95 87 1.7 2.6 0.00 0.00 0.00 12 1012.1
20240527160530 94 89 1.7 2.6 0.00 0.00 0.00 17 1012.1
20240527160028 93 89 0.9 3.5 0.00 0.00 0.00 18 1012.1
20240527155526 92 29 0.9 2.6 0.00 0.00 0.00 20 1012.0
20240527154528 91 30 0.9 2.6 0.00 0.00 0.00 21 1012.0
20240527154025 90 30 0.9 3.5 0.00 0.00 0.00 22 1012.1
20240527153523 90 29 1.7 3.5 0.00 0.00 0.00 23 1012.2
20240527153022 90 353 0.0 1.7 0.00 0.00 0.00 24 1012.2
20240527152525 88 353 0.9 2.6 0.00 0.00 0.00 26 1012.1
20240527152021 88 353 0.9 2.6 0.00 0.00 0.00 26 1012.0
20240527151519 88 353 0.9 3.5 0.00 0.00 0.00 25 1011.9
20240527151015 87 351 0.9 3.5 0.00 0.00 0.00 26 1011.9
20240527150513 85 198 0.0 2.6 0.00 0.00 0.00 28 1011.9
20240527150012 84 198 0.9 2.6 0.00 0.00 0.00 27 1012.1
20240527145512 82 200 0.9 3.5 0.00 0.00 0.00 25 1012.0
20240527144511 82 200 1.7 3.5 0.00 0.00 0.00 24 1011.9
20240527144013 82 181 0.9 2.6 0.00 0.00 0.00 24 1011.9
20240527143507 82 181 1.7 2.6 0.00 0.00 0.00 24 1012.0
20240527143006 81 180 0.9 2.6 0.00 0.00 0.00 23 1011.8
20240527142505 81 179 0.0 2.6 0.00 0.00 0.00 21 1011.9
20240527142006 80 179 0.9 2.6 0.00 0.00 0.00 20 1011.9
20240527141503 79 179 0.9 2.6 0.00 0.00 0.00 19 1011.8
20240527141100 78 192 0.9 2.6 0.00 0.00 0.00 19 1011.8
20240527141001 78 192 0.9 2.6 0.00 0.00 0.00 19 1011.8
20240527140600 77 193 0.0 2.6 0.00 0.00 0.00 20 1011.8
20240527140104 76 193 1.7 2.6 0.00 0.00 0.00 20 1011.9
20240527135556 74 267 0.0 2.6 0.00 0.00 0.00 18 1011.6
20240527134555 74 267 0.0 2.6 0.00 0.00 0.00 17 1011.6
20240527134055 74 267 0.9 2.6 0.00 0.00 0.00 16 1011.6
20240527133557 73 267 0.9 2.6 0.00 0.00 0.00 15 1011.6
20240527133051 73 267 0.9 2.6 0.00 0.00 0.00 14 1011.7
20240527132549 72 266 0.9 2.6 0.00 0.00 0.00 15 1011.6
20240527132048 71 266 1.7 2.6 0.00 0.00 0.00 15 1011.4
20240527131550 71 272 0.9 1.7 0.00 0.00 0.00 17 1011.3
20240527131045 70 263 0.9 1.7 0.00 0.00 0.00 16 1011.3
20240527130544 69 263 0.0 0.9 0.00 0.00 0.00 16 1011.4
20240527130043 68 263 0.0 0.9 0.00 0.00 0.00 15 1011.4
20240527125540 67 263 0.0 1.7 0.00 0.00 0.00 16 1011.2
20240527124545 65 264 0.0 1.7 0.00 0.00 0.00 18 1010.9
20240527124040 65 264 0.9 2.6 0.00 0.00 0.00 19 1010.9
20240527123537 65 264 0.9 2.6 0.00 0.00 0.00 18 1010.8
20240527123036 65 264 0.0 1.7 0.00 0.00 0.00 18 1010.6
20240527122535 64 264 0.0 1.7 0.00 0.00 0.00 18 1010.5
20240527122035 64 263 0.0 1.7 0.00 0.00 0.00 18 1010.6
20240527121535 63 264 0.9 1.7 0.00 0.00 0.00 19 1010.6
20240527121031 63 264 0.0 0.9 0.00 0.00 0.00 19 1010.5
20240527120531 63 264 0.0 0.9 0.00 0.00 0.00 19 1010.4
20240527120028 63 264 0.0 1.7 0.00 0.00 0.00 19 1010.3
20240527115526 63 264 0.0 1.7 0.00 0.00 0.00 20 1010.3
20240527114525 63 264 0.0 2.6 0.00 0.00 0.00 19 1010.1
20240527114024 63 264 0.9 2.6 0.00 0.00 0.00 20 1010.0
20240527113521 63 264 0.0 2.6 0.00 0.00 0.00 20 1009.8
20240527113021 63 264 0.9 2.6 0.00 0.00 0.00 20 1010.0
20240527112519 63 264 0.9 2.6 0.00 0.00 0.00 19 1010.0
20240527112018 64 262 0.0 2.6 0.00 0.00 0.00 18 1009.9
20240527111529 64 262 1.7 2.6 0.00 0.00 0.00 18 1009.9
20240527111014 64 262 0.0 3.5 0.00 0.00 0.00 16 1009.8
20240527110513 65 262 1.7 3.5 0.00 0.00 0.00 16 1009.7
20240527110012 65 312 0.9 1.7 0.00 0.00 0.00 15 1009.6
20240527105510 65 312 0.0 2.6 0.00 0.00 0.00 16 1009.4
20240527104510 65 312 0.0 3.5 0.00 0.00 0.00 15 1009.3
20240527104008 65 311 0.0 1.7 0.00 0.00 0.00 15 1009.2
20240527103506 65 311 0.0 1.7 0.00 0.00 0.00 16 1009.2
20240527103008 65 311 0.0 1.7 0.00 0.00 0.00 16 1009.2
20240527102503 65 311 0.0 1.7 0.00 0.00 0.00 16 1009.2
20240527102002 65 311 0.9 1.7 0.00 0.00 0.00 15 1009.2
20240527101503 65 311 0.0 1.7 0.00 0.00 0.00 15 1009.2
20240527101104 65 311 0.9 2.6 0.00 0.00 0.00 15 1009.2
20240527100600 65 311 0.9 2.6 0.00 0.00 0.00 14 1009.1
20240527100056 66 311 0.0 0.9 0.00 0.00 0.00 14 1009.1
20240527095558 66 311 0.0 1.7 0.00 0.00 0.00 13 1009.1
20240527094559 66 311 0.0 0.9 0.00 0.00 0.00 13 1009.1
20240527094052 66 311 0.0 0.9 0.00 0.00 0.00 13 1009.0
20240527093552 66 311 0.0 3.5 0.00 0.00 0.00 13 1009.0
20240527093050 67 311 1.7 3.5 0.00 0.00 0.00 14 1009.1
20240527092549 67 311 0.9 1.7 0.00 0.00 0.00 12 1009.0
20240527092048 67 311 0.9 1.7 0.00 0.00 0.00 12 1008.9
20240527091601 67 311 0.0 1.7 0.00 0.00 0.00 12 1008.9
20240527091045 67 311 0.9 4.3 0.00 0.00 0.00 11 1009.0
20240527090544 67 311 0.0 4.3 0.00 0.00 0.00 11 1009.0
20240527090042 68 159 0.0 2.6 0.00 0.00 0.00 10 1008.9
20240527085540 69 158 0.0 1.7 0.00 0.00 0.00 11 1008.8
20240527084539 69 158 0.0 1.7 0.00 0.00 0.00 11 1008.8
20240527084039 70 158 0.0 1.7 0.00 0.00 0.00 9 1008.9
20240527083536 71 158 0.9 2.6 0.00 0.00 0.00 7 1008.8
20240527083035 72 159 1.7 2.6 0.00 0.00 0.00 6 1008.8
20240527082533 72 159 0.0 3.5 0.00 0.00 0.00 5 1008.8
20240527082032 73 160 1.7 3.5 0.00 0.00 0.00 5 1008.6
20240527081530 72 159 1.7 4.3 0.00 0.00 0.00 4 1008.5
20240527081029 72 156 1.7 4.3 0.00 0.00 0.00 5 1008.5
20240527080528 71 249 1.7 3.5 0.00 0.00 0.00 6 1008.6
20240527080027 71 193 0.9 4.3 0.00 0.00 0.00 6 1008.5
20240527075526 70 212 2.6 8.7 0.00 0.00 0.00 6 1008.5
20240527074527 67 181 2.6 5.2 0.00 0.00 0.00 10 1008.5
20240527074026 67 188 2.6 5.2 0.00 0.00 0.00 12 1008.5
20240527073530 68 197 2.6 5.2 0.00 0.00 0.00 11 1008.6
20240527073022 68 351 0.0 1.7 0.00 0.00 0.00 10 1008.4
20240527072525 68 351 0.9 1.7 0.00 0.00 0.00 9 1008.2
20240527072021 68 351 0.0 1.7 0.00 0.00 0.00 8 1008.3
20240527071521 69 351 0.0 0.9 0.00 0.00 0.00 9 1008.2
20240527071021 69 351 0.0 0.9 0.00 0.00 0.00 10 1008.3
20240527070518 69 351 0.0 0.9 0.00 0.00 0.00 11 1008.4
20240527070020 69 351 0.0 1.7 0.00 0.00 0.00 12 1008.2
20240527065518 69 351 0.0 0.9 0.00 0.00 0.00 9 1008.1
20240527064519 70 351 0.0 1.7 0.00 0.00 0.00 9 1008.1
20240527064015 70 351 0.0 1.7 0.00 0.00 0.00 9 1008.2
20240527063517 71 351 0.9 1.7 0.00 0.00 0.00 10 1008.1
20240527063016 71 351 0.0 1.7 0.00 0.00 0.00 13 1008.1
20240527062514 71 351 0.0 0.9 0.00 0.00 0.00 12 1008.1
20240527062014 71 351 0.0 1.7 0.00 0.00 0.00 12 1008.0
20240527061535 71 351 0.0 1.7 0.00 0.00 0.00 12 1008.1
20240527061012 71 351 0.0 2.6 0.00 0.00 0.00 12 1008.1
20240527060512 71 351 0.9 2.6 0.00 0.00 0.00 11 1008.1
20240527060014 72 351 0.9 2.6 0.00 0.00 0.00 12 1008.1
20240527055509 72 351 0.9 1.7 0.00 0.00 0.00 11 1008.0
20240527054509 73 351 0.9 1.7 0.00 0.00 0.00 10 1008.1
20240527054014 73 351 0.9 1.7 0.00 0.00 0.00 9 1008.1
20240527053508 73 351 0.0 0.9 0.00 0.00 0.00 10 1008.1
20240527053007 74 351 0.0 0.9 0.00 0.00 0.00 10 1008.1
20240527052507 74 351 0.0 1.7 0.00 0.00 0.00 9 1008.1
20240527052004 74 351 0.0 1.7 0.00 0.00 0.00 9 1008.0
20240527051504 74 351 0.0 0.0 0.00 0.00 0.00 9 1008.0
20240527051003 74 351 0.0 1.7 0.00 0.00 0.00 9 1007.9
20240527050502 74 351 0.0 2.6 0.00 0.00 0.00 10 1007.9
20240527050101 74 351 0.9 2.6 0.00 0.00 0.00 9 1007.9
20240527050001 74 351 0.9 2.6 0.00 0.00 0.00 9 1007.8
20240527045559 74 351 1.7 2.6 0.00 0.00 0.00 9 1007.9
20240527045200 75 351 0.9 2.6 0.00 0.00 0.00 10 1007.7
20240527044558 75 351 0.9 1.7 0.00 0.00 0.00 10 1007.6
20240527044056 76 351 0.9 1.7 0.00 0.00 0.00 9 1007.7
20240527043554 76 351 0.9 1.7 0.00 0.00 0.00 9 1007.6
20240527043053 77 351 0.0 1.7 0.00 0.00 0.00 8 1007.5
20240527042552 77 351 0.0 1.7 0.00 0.00 0.00 8 1007.6
20240527042050 78 351 0.9 1.7 0.00 0.00 0.00 8 1007.6
20240527041549 78 351 0.9 1.7 0.00 0.00 0.00 7 1007.6
20240527041050 78 351 0.0 0.9 0.00 0.00 0.00 7 1007.5
20240527040546 79 351 0.0 1.7 0.00 0.00 0.00 6 1007.5
20240527040046 79 351 0.9 1.7 0.00 0.00 0.00 5 1007.3
20240527035543 80 351 0.0 1.7 0.00 0.00 0.00 5 1007.2
20240527034542 80 351 0.0 0.9 0.00 0.00 0.00 4 1006.9
20240527034042 80 351 0.0 0.9 0.00 0.00 0.00 4 1006.9
20240527033541 81 351 0.0 0.9 0.00 0.00 0.00 4 1006.6
20240527033041 81 351 0.0 1.7 0.00 0.00 0.00 3 1006.6
20240527032541 81 351 0.0 2.6 0.00 0.00 0.00 3 1006.5
20240527032040 81 351 0.0 2.6 0.00 0.00 0.00 2 1006.4
20240527031544 82 351 0.9 2.6 0.00 0.00 0.00 3 1006.4
20240527031037 82 351 0.9 2.6 0.00 0.00 0.00 3 1006.4
20240527030536 83 351 0.0 1.7 0.00 0.00 0.00 2 1006.3
20240527030035 84 351 0.9 1.7 0.00 0.00 0.00 2 1006.2
20240527025532 85 351 0.0 2.6 0.00 0.00 0.00 1 1006.2
20240527025032 86 351 0.9 2.6 0.00 0.00 0.00 1 1006.0
20240527024537 87 351 0.9 1.7 0.00 0.00 0.00 1 1005.9
20240527024031 88 351 0.0 0.0 0.00 0.00 0.00 1 1005.8
20240527023527 88 351 0.0 0.0 0.00 0.00 0.00 1 1005.8
20240527023026 89 351 0.0 0.9 0.00 0.00 0.00 1 1005.8
20240527022525 89 351 0.0 0.9 0.00 0.00 0.00 1 1005.7
20240527022124 90 351 0.0 0.9 0.00 0.00 0.00 1 1005.7
20240527021523 91 351 0.0 0.9 0.00 0.00 0.00 1 1005.6
20240527021027 91 351 0.0 0.9 0.00 0.00 0.00 1 1005.4
20240527020522 92 351 0.0 0.9 0.00 0.00 0.00 1 1005.4
20240527020021 92 351 0.0 1.7 0.00 0.00 0.00 1 1005.4
20240527015520 93 351 0.0 1.7 0.00 0.00 0.00 1 1005.4
20240527015018 94 351 0.0 2.6 0.00 0.00 0.00 1 1005.4
20240527014517 95 351 0.9 2.6 0.00 0.00 0.00 1 1005.2
20240527014016 95 351 0.9 3.5 0.00 0.00 0.00 1 1005.2
20240527013514 96 351 0.9 5.2 0.00 0.00 0.00 1 1005.1
20240527013029 96 349 1.7 5.2 0.00 0.00 0.00 1 1005.0
20240527012511 97 350 0.9 5.2 0.00 0.00 0.00 1 1005.0
20240527012111 98 351 1.7 7.0 0.00 0.00 0.00 1 1004.9
20240527011518 98 8 3.5 7.0 0.00 0.00 0.00 1 1004.9
20240527011007 99 335 2.6 7.0 0.00 0.00 0.00 1 1004.9
20240527010507 99 331 3.5 7.0 0.00 0.00 0.00 1 1004.7
20240527010006 99 342 2.6 8.7 0.00 0.00 0.00 1 1004.7
20240527005504 100 14 3.5 8.7 0.00 0.00 0.00 1 1004.7
20240527005003 100 13 3.5 10.4 0.00 0.00 0.00 1 1004.6
20240527004600 100 335 4.3 10.4 0.00 0.00 0.00 1 1004.6
20240527004500 101 8 3.5 7.8 0.00 0.00 0.00 1 1004.6
20240527004100 101 357 3.5 7.8 0.00 0.00 0.00 1 1004.5
20240527003600 101 331 2.6 7.8 0.00 0.00 0.00 1 1004.5
20240527003059 101 338 2.6 8.7 0.00 0.00 0.00 1 1004.5
20240527002559 101 321 5.2 8.7 0.00 0.00 0.00 1 1004.4
20240527002100 101 346 3.5 12.2 0.00 0.00 0.00 1 1004.4
20240527001611 101 318 2.6 12.2 0.00 0.00 0.00 1 1004.4
20240527001102 102 335 3.5 7.8 0.00 0.00 0.00 1 1004.4
20240527000557 102 351 3.5 7.0 0.00 0.00 0.00 1 1004.4
20240527000058 101 337 2.6 7.8 0.00 0.00 0.00 1 1004.5
20240526235553 101 300 3.5 9.6 0.00 0.00 0.00 1 1004.4
20240526235052 102 304 5.2 9.6 0.00 0.00 0.00 1 1004.4
20240526234551 102 307 3.5 7.0 0.00 0.00 0.00 1 1004.3
20240526234049 102 335 2.6 7.8 0.00 0.00 0.00 1 1004.4
20240526233547 102 317 3.5 7.8 0.00 0.00 0.00 1 1004.4
20240526233049 102 315 2.6 7.0 0.00 0.00 0.00 1 1004.5
20240526232545 102 308 3.5 7.0 0.00 0.00 0.00 1 1004.6
20240526232044 102 339 5.2 8.7 0.00 0.00 0.00 1 1004.4
20240526231601 102 9 5.2 8.7 0.00 0.00 0.00 1 1004.6
20240526231041 102 323 3.5 8.7 0.00 0.00 0.00 1 1004.5
20240526230542 102 320 3.5 10.4 0.00 0.00 0.00 1 1004.4
20240526230053 102 341 6.1 10.4 0.00 0.00 0.00 1 1004.6
20240526225537 102 337 3.5 7.0 0.00 0.00 0.00 1 1004.5
20240526225035 101 320 3.5 13.9 0.00 0.00 0.00 1 1004.6
20240526224534 101 303 5.2 13.9 0.00 0.00 0.00 1 1004.6
20240526224032 101 303 5.2 15.6 0.00 0.00 0.00 1 1004.7
20240526223534 101 323 7.8 17.4 0.00 0.00 0.00 1 1004.6
20240526223030 101 312 7.0 17.4 0.00 0.00 0.00 1 1004.6
20240526222531 102 354 9.6 17.4 0.00 0.00 0.00 1 1004.6
20240526222127 102 317 8.7 19.1 0.00 0.00 0.00 1 1004.6
20240526221528 102 299 9.6 19.1 0.00 0.00 0.00 1 1004.7
20240526221026 101 327 7.8 14.8 0.00 0.00 0.00 1 1004.6
20240526220524 101 350 6.1 16.5 0.00 0.00 0.00 1 1004.9
20240526220024 101 349 8.7 16.5 0.00 0.00 0.00 1 1004.8
20240526215522 101 347 7.8 16.5 0.00 0.00 0.00 1 1004.9
20240526215020 102 342 4.3 13.9 0.00 0.00 0.00 1 1004.9
20240526214519 101 332 6.1 13.9 0.00 0.00 0.00 1 1004.9
20240526214018 101 313 5.2 17.4 0.00 0.00 0.00 1 1004.9
20240526213516 101 6 6.1 17.4 0.00 0.00 0.00 1 1005.1
20240526213019 101 344 8.7 17.4 0.00 0.00 0.00 1 1005.1
20240526212514 101 339 7.8 15.6 0.00 0.00 0.00 1 1005.1
20240526212012 101 314 7.8 13.0 0.00 0.00 0.00 1 1005.2
20240526211512 101 347 7.0 13.0 0.00 0.00 0.00 1 1005.2
20240526211011 101 327 5.2 12.2 0.00 0.00 0.00 1 1005.2
20240526210509 100 316 5.2 12.2 0.00 0.00 0.00 1 1005.5
20240526210010 100 345 5.2 14.8 0.00 0.00 0.00 1 1005.5
20240526205511 100 338 7.0 14.8 0.00 0.00 0.00 1 1005.3
20240526205006 100 327 6.1 16.5 0.00 0.00 0.00 1 1005.4
20240526204503 100 340 7.0 17.4 0.00 0.00 0.00 1 1005.4
20240526204002 100 316 8.7 19.1 0.00 0.00 0.00 1 1005.6
20240526203503 100 337 7.0 19.1 0.00 0.00 0.00 1 1005.7
20240526203100 101 328 7.8 15.6 0.00 0.00 0.00 1 1005.7
20240526202557 100 24 5.2 14.8 0.00 0.00 0.00 1 1005.7
20240526202056 100 360 7.8 16.5 0.00 0.00 0.00 1 1005.8
20240526201054 100 333 5.2 12.2 0.00 0.00 0.00 1 1005.9
20240526200552 100 316 6.1 12.2 0.00 0.00 0.00 1 1006.1
20240526200100 99 343 6.1 16.5 0.00 0.00 0.00 1 1005.9
20240526195550 100 338 7.8 16.5 0.00 0.00 0.00 1 1006.1
20240526195048 99 335 7.0 14.8 0.00 0.00 0.00 1 1006.1
20240526194554 99 339 5.2 16.5 0.00 0.00 0.00 1 1006.2
20240526194045 99 339 7.8 16.5 0.00 0.00 0.00 1 1006.3
20240526193544 99 341 5.2 11.3 0.00 0.00 0.00 1 1006.5
20240526193043 99 348 6.1 16.5 0.00 0.00 0.00 1 1006.5
20240526192542 99 303 8.7 16.5 0.00 0.00 0.00 1 1006.5
20240526192044 98 3 7.0 14.8 0.00 0.00 0.00 1 1006.4
20240526191039 98 343 9.6 14.8 0.00 0.00 0.00 1 1006.7
20240526190537 98 316 6.1 12.2 0.00 0.00 0.00 1 1006.7
20240526190047 97 343 7.0 16.5 0.00 0.00 0.00 1 1006.8
20240526185535 98 323 7.8 16.5 0.00 0.00 0.00 1 1007.0
20240526185034 98 264 6.1 15.6 0.00 0.00 0.00 1 1006.8
20240526184533 98 304 5.2 13.0 0.00 0.00 0.00 1 1006.7
20240526184031 98 10 6.1 16.5 0.00 0.00 0.00 1 1006.8
20240526183531 98 331 7.0 16.5 0.00 0.00 0.00 1 1006.8
20240526183028 98 328 6.1 19.1 0.00 0.00 0.00 1 1006.8
20240526182528 98 284 7.0 14.8 0.00 0.00 0.00 1 1006.9
20240526182025 98 337 4.3 16.5 0.00 0.00 0.00 1 1007.0